Location: Northcutt
(34.7304°N, 84.4305°W)
Time: 08:44:20
(UTC+00:00)

S-56A Canister/Altair - Pass Details

Date: 11 October 2022
Orbit: 638 x 2494 km, 38.9° (Epoch: 08 December)

Event Time Altitude Azimuth Distance (km) Brightness Sun altitude
Rises 02:39:27 0° 223° (SW) 6,010 12.3 -43.0°
Reaches altitude 10° 02:43:22 10° 219° (SW) 5,094 11.8 -43.7°
Enters shadow 02:51:11 36° 204° (SSW) 3,449 10.6 -45.2°
Maximum altitude 02:57:57 58° 146° (SE) 2,715 - -46.4°
Drops below altitude 10° 03:10:39 10° 72° (ENE) 4,496 - -48.6°
Sets 03:13:51 0° 69° (ENE) 5,288 - -49.1°
